Regional Weather Roundup
Issued by NWS San Angelo, TX

Home | Current Version | Previous Version | Text Only | Print | Product List | Glossary On
Versions: 1 2 3 4 5 6 7 8 9 10 11 12 13 14 15 16 17 18 19 20 21 22 23 24 25 26 27 28 29 30 31 32 33 34 35 36 37 38 39 40 41 42 43 44 45 46 47 48 49 50
000
ASUS44 KSJT 221410
RWRSJT
WEST CENTRAL TEXAS REGIONAL WEATHER ROUNDUP
NATIONAL WEATHER SERVICE SAN ANGELO TX
900 AM CDT MON SEP 22 2014

NOTE: "FAIR" INDICATES FEW OR NO CLOUDS BELOW 12,000 FEET WITH NO
SIGNIFICANT WEATHER AND/OR OBSTRUCTIONS TO VISIBILITY.

TXZ049-054-064>066-071>073-076>078-098-099-113-114-127-128-139-140-
154-155-168>170-221500
...LOCATIONS ACROSS WEST CENTRAL TEXAS...

CITY           SKY/WX    TMP DP  RH WIND       PRES   REMARKS
SAN ANGELO     PTSUNNY   72  67  84 CALM      30.21R
ABILENE        MOSUNNY   72  66  81 E10       30.23R
DYESS AFB      MOSUNNY   72  60  67 E8        30.22R
JUNCTION       MOSUNNY   67  64  90 CALM      30.20R
SWEETWATER     CLOUDY    68  68 100 NE6       30.27R
BROWNWOOD      MOSUNNY   73  68  83 E6        30.21R
COLEMAN        NOT AVBL
SONORA         MOSUNNY   66  63  88 CALM      30.25S
OZONA          FAIR      72  63  73 SE5       30.24R
BRADY          MOSUNNY   72  66  83 NE6       30.21R
$$

TEXAS PANHANDLE/OKLAHOMA PANHANDLE

CITY           SKY/WX    TMP DP  RH WIND       PRES   REMARKS
AMARILLO       CLOUDY    60  54  80 SE14      30.33R
BORGER         CLOUDY    64  52  64 E7        30.32R
CANADIAN       CLOUDY    60  55  84 SE3       30.33R
DALHART        CLOUDY    64  51  62 SE8       30.34R
DUMAS          PTSUNNY   60  51  73 SE9       30.33R
GUYMON         NOT AVBL
HEREFORD       CLOUDY    63  57  82 SE8       30.34R
PAMPA          MOSUNNY   60  47  62 SE12      30.34R
PERRYTON       CLOUDY    62  46  55 SE12      30.33R
$$

SOUTHERN PANHANDLE/SOUTH PLAINS/ROLLING PLAINS

CITY           SKY/WX    TMP DP  RH WIND       PRES   REMARKS
LUBBOCK        CLOUDY    64  58  80 E12       30.30R
SNYDER         CLOUDY    69  66  92 NE12G17   30.26R
CHILDRESS      CLOUDY    69  50  50 E9        30.30R
SEMINOLE       CLOUDY    66  65  96 CALM      30.29R FOG
$$

PERMIAN BASIN

CITY           SKY/WX    TMP DP  RH WIND       PRES   REMARKS
MIDLAND        CLOUDY    70  68  93 E9        30.24R FOG
ODESSA         CLOUDY    70  67  90 E7        30.25R FOG
WINK           CLOUDY    71  69  93 E5        30.21R
$$

FAR WEST/SOUTHWEST MOUNTAINS/TRANS PECOS

CITY           SKY/WX    TMP DP  RH WIND       PRES   REMARKS
ALPINE         CLOUDY    67  62  84 CALM      30.34R
DRYDEN           N/A     77  69  76 E10       30.18R
EL PASO        CLOUDY    67  65  93 NW8       30.20R
FORT STOCKTON  CLOUDY    70  68  93 E8        30.22R
GUADALUPE PASS LGT RAIN  62  62 100 E21       30.32  VSB<1/4
MARFA          CLOUDY    64  61  88 E8        30.32R
PECOS          RAIN      68  67  96 NE3       30.21R
$$

DALLAS/FORT WORTH METROPLEX

CITY           SKY/WX    TMP DP  RH WIND       PRES   REMARKS
DFW AIRPORT    PTSUNNY   74  53  48 NE14      30.20R
FTW MEACHAM    PTSUNNY   76  54  46 E12       30.19R
DAL-EXECUTIVE  MOSUNNY   76  57  51 E12       30.19R
GRAND PRAIRIE  SUNNY     75  54  46 MISG      30.21R
ADDISON        PTSUNNY   73  52  46 NE12G24   30.21R
MESQUITE       NOT AVBL
LANCASTER      PTSUNNY   74  58  58 NE10      30.20R
$$

NORTH CENTRAL TEXAS

CITY           SKY/WX    TMP DP  RH WIND       PRES   REMARKS
SHRMAN/DENISON SUNNY     68  54  60 NE7       30.25R
GAINESVILLE    MOSUNNY   67  54  61 N7        30.26R
BRIDGEPORT     SUNNY     71  51  49 NE9       30.24R
DENTON         MOSUNNY   70  53  54 E12       30.21R
WAXAHACHIE     CLOUDY    73  58  59 NE10      30.20R
GRANBURY       SUNNY     74  58  56 NE3       30.21R
$$

WESTERN NORTH TEXAS

CITY           SKY/WX    TMP DP  RH WIND       PRES   REMARKS
WICHITA FALLS  PTSUNNY   67  52  58 E13       30.25R
VERNON         PTSUNNY   68  53  59 NE7       30.28R
BRECKENRIDGE   SUNNY     74  53  47 E8        30.22R HAZE
COMANCHE       SUNNY     71  68  90 CALM      30.21R
$$

CENTRAL AND SOUTH CENTRAL TEXAS

CITY           SKY/WX    TMP DP  RH WIND       PRES   REMARKS
AUSTIN/BERGSTM PTSUNNY   75  70  84 N7        30.13R
WACO           SUNNY     76  69  79 NE13      30.16R
HILLSBORO      SUNNY     75  64  68 NE15G21   30.17R
TEMPLE         SUNNY     75  66  73 N9        30.15R
KILLEEN-GRAY   MOSUNNY   75  66  73 NE10      30.17R
FORT HOOD      SUNNY     77  69  76 N5        30.16R
GEORGETOWN     SUNNY     75  66  73 N7        30.15R
LAGO VISTA     FAIR      75  65  70 N7        30.17S
SAN MARCOS     SUNNY     75  64  69 N6        30.14R
NEW BRAUNFELS  SUNNY     75  68  78 NW6       30.12R
RANDOLPH AFB   SUNNY     73  66  78 N6        30.13R
SAN ANTONIO    MOSUNNY   76  66  71 NW6       30.14R
STINSON        SUNNY     77  66  68 N5        30.11R
PLEASANTON     NOT AVBL
LA GRANGE      SUNNY     76  71  87 CALM      30.09S
GIDDINGS       SUNNY     76  67  75 N6        30.16R
$$

EAST TEXAS

CITY           SKY/WX    TMP DP  RH WIND       PRES   REMARKS
PARIS          SUNNY     70  52  52 E12       30.23R
CLARKSVILLE    NOT AVBL
TYLER          SUNNY     74  56  53 NE13G20   30.17R
LONGVIEW       MOSUNNY   74  55  51 NE9       30.16R
PALESTINE      PTSUNNY   76  67  71 NE9       30.15R
NACOGDOCHES    MOSUNNY   75  61  60 CALM      30.14R
$$

TEXAS HILL COUNTRY AND EDWARDS PLATEAU

CITY           SKY/WX    TMP DP  RH WIND       PRES   REMARKS
LLANO          MOSUNNY   73  70  88 CALM      30.21R
HORSESHOE BAY  FAIR      72  67  86 CALM      30.17R
KERRVILLE      MOSUNNY   67  64  90 NW3       30.19R
FREDERICKSBRG  MOSUNNY   67  64  93 CALM      30.19R
ROCKSPRINGS    SUNNY     72  66  83 CALM      30.23R
HONDO          SUNNY     73  65  75 N6        30.16R
UVALDE         MOSUNNY   75  70  84 NE5       30.16R
DEL RIO        MOSUNNY   75  70  84 E5        30.14R
$$

SOUTHEAST TEXAS

CITY           SKY/WX    TMP DP  RH WIND       PRES   REMARKS
COLLEGE STN    MOSUNNY   76  69  79 N10       30.11R
CALDWELL       SUNNY     73  68  83 N8        30.15R
CROCKETT       MOSUNNY   79  72  78 NE13G20   30.15S
BRENHAM        SUNNY     78  71  80 N3        30.11S
HUNTSVILLE     MOSUNNY   74  69  85 NE3       30.11R
CONROE         SUNNY     72  69  90 N6        30.09R
HOUSTON BUSH   MOSUNNY   80  70  71 N3        30.08R
HOUSTON HOBBY  MOSUNNY   81  72  74 CALM      30.07R
PERLAND        SUNNY     81  73  76 N5        30.08R
WHARTON        SUNNY     76  71  86 N5        30.09R
$$

THE UPPER TEXAS COAST

CITY           SKY/WX    TMP DP  RH WIND       PRES   REMARKS
ORANGE         MOSUNNY   76  76 100 N5        30.09R
PORT ARTHUR    SUNNY     80  73  79 N10       30.07R
GALVESTON      SUNNY     82  76  81 N7        30.07R
ANGLETON       SUNNY     77  73  87 N5        30.07R
BAY CITY       SUNNY     77  77 100 NE3       30.07R
$$

TEXAS COASTAL BEND, RIO GRANDE PLAINS DEEP SOUTH TEXAS

CITY           SKY/WX    TMP DP  RH WIND       PRES   REMARKS
VICTORIA       SUNNY     77  72  84 N6        30.09R
BEEVILLE       FAIR      75  72  88 N6        30.08R
ROCKPORT       SUNNY     78  72  81 N9        30.06R
PORT ARANSAS   PTSUNNY   79  76  90 N9        30.05R
PORT LAVACA    SUNNY     76  72  86 N6        30.08R
CORPUS CHRISTI PTSUNNY   78  74  87 NE9       30.06R
KINGSVILLE NAS PTSUNNY   76  76 100 N9        30.06R
COTULLA        SUNNY     76  70  82 NE6       30.11R
LAREDO         SUNNY     76  72  87 NE7       30.13R
BROWNSVILLE    MOSUNNY   81  76  84 NE3       30.01R
PORT ISABEL    NOT AVBL
HEBBRONVILLE     N/A     74  72  91 NE8       30.10R
MCALLEN        PTSUNNY   81  75  83 N6        30.04R
WESLACO        PTSUNNY   79  74  84 N6        30.03R
FALFURRIAS     SUNNY    N/A N/A N/A N6        30.06R
EDINBURG       SUNNY     80  74  82 N7        30.04R
$$


USA.gov is the U.S. government's official web portal to all federal, state and local government web resources and services.